W4CAT-13 Weather Reports


Display with metric or nautical units.
time (UTC)temp
F
wind
direction
speed
MPH
gust
MPH
rain 1hr
in
rain 24hr
in
rain mn
in
humidity
%
barometer
mb
20260901090819 77 174 1.0 1.0 0.00 0.00 0.00 80 981.7
20260901085319 77 191 1.0 2.0 0.00 0.00 0.00 79 981.7
20260901083853 77 175 0.0 1.0 0.00 0.00 0.00 78 981.4
20260901083818 77 175 0.0 1.0 0.00 0.00 0.00 78 981.4
20260901082248 78 157 1.0 1.0 0.00 0.00 0.00 77 981.7
20260901080748 78 194 2.0 2.0 0.00 0.00 0.00 76 981.4
20260901075355 78 190 2.0 2.0 0.00 0.00 0.00 76 981.4
20260901075248 78 190 2.0 2.0 0.00 0.00 0.00 76 981.4
20260901073748 78 185 0.0 1.0 0.00 0.00 0.00 76 981.4
20260901072218 78 180 0.0 1.0 0.00 0.00 0.00 75 981.4
20260901070718 79 176 1.0 2.0 0.00 0.00 0.00 74 981.4
20260901065218 79 136 1.0 2.0 0.00 0.00 0.00 74 981.7
20260901063718 79 142 1.0 1.0 0.00 0.00 0.00 74 981.7
20260901062256 79 76 0.0 1.0 0.00 0.00 0.00 73 982.1
20260901062218 79 76 0.0 1.0 0.00 0.00 0.00 73 982.1
20260901060718 80 42 0.0 1.0 0.00 0.00 0.00 71 982.1
20260901055148 81 131 0.0 1.0 0.00 0.00 0.00 70 982.1
20260901053618 81 78 1.0 1.0 0.00 0.00 0.00 68 982.1
20260901052048 81 89 1.0 2.0 0.00 0.00 0.00 67 981.7
20260901050548 81 78 1.0 2.0 0.00 0.00 0.00 67 981.7
20260901045048 81 48 0.0 1.0 0.00 0.00 0.00 67 981.7
20260901043548 81 69 1.0 1.0 0.00 0.00 0.00 68 982.1
20260901042017 82 58 0.0 0.0 0.00 0.00 0.00 67 981.8
20260901040517 82 34 0.0 0.0 0.00 0.00 0.00 66 981.7
20260901035017 82 23 0.0 1.0 0.00 0.00 0.00 65 981.7
20260901033517 82 108 0.0 1.0 0.00 0.00 0.00 64 981.7
20260901032017 83 48 0.0 1.0 0.00 0.00 0.00 64 981.7
20260901030517 83 40 0.0 0.0 0.00 0.00 0.00 62 981.7
20260901025017 83 55 0.0 1.0 0.00 0.00 0.00 62 981.4
20260901023447 83 35 0.0 1.0 0.00 0.00 0.00 62 981.7
20260901021917 83 40 0.0 1.0 0.00 0.00 0.00 61 981.4
20260901020417 83 20 0.0 0.0 0.00 0.00 0.00 61 981.4
20260901014847 84 132 0.0 0.0 0.00 0.00 0.00 60 981.4
20260901013347 85 16 0.0 0.0 0.00 0.00 0.00 58 981.0
20260901011847 85 98 0.0 1.0 0.00 0.00 0.00 58 980.7
20260901010317 85 20 0.0 1.0 0.00 0.00 0.00 57 981.0
20260901004817 85 6 0.0 1.0 0.00 0.00 0.00 58 980.7
20260901003317 86 45 0.0 1.0 0.00 0.00 0.00 58 980.7
20260901001817 86 79 1.0 1.0 0.00 0.00 0.00 58 980.9
20260901000248 87 88 0.0 1.0 0.00 0.00 0.00 56 981.0
20260831234747 87 76 0.0 1.0 0.00 0.00 0.00 56 981.0
20260831233246 87 69 1.0 1.0 0.00 0.00 0.00 56 981.1
20260831231747 88 75 0.0 1.0 0.00 0.00 0.00 55 981.0
20260831230216 89 89 0.0 1.0 0.00 0.00 0.00 53 981.4
20260831224716 90 103 1.0 2.0 0.00 0.00 0.00 48 981.4
20260831223216 91 279 0.0 1.0 0.00 0.00 0.00 50 981.4
20260831221716 91 2 0.0 1.0 0.00 0.00 0.00 50 981.4
20260831220216 92 277 0.0 2.0 0.00 0.00 0.00 49 981.4
20260831214716 92 299 0.0 2.0 0.00 0.00 0.00 49 981.4
20260831213216 93 44 0.0 2.0 0.00 0.00 0.00 50 981.7
20260831211716 95 80 0.0 2.0 0.00 0.00 0.00 46 981.7
20260831210146 94 71 0.0 2.0 0.00 0.00 0.00 50 981.7
20260831204646 94 326 0.0 2.0 0.00 0.00 0.00 46 981.7
20260831203116 91 286 1.0 3.0 0.00 0.00 0.00 51 981.7
20260831201616 92 239 1.0 3.0 0.00 0.00 0.00 50 982.1
20260831200116 94 238 2.0 3.0 0.00 0.00 0.00 49 982.4
20260831194616 93 216 2.0 2.0 0.00 0.00 0.00 47 982.4
20260831193116 93 201 1.0 3.0 0.00 0.00 0.00 48 982.7
20260831191616 94 238 0.0 3.0 0.00 0.00 0.00 50 982.7
20260831190116 93 230 0.0 3.0 0.00 0.00 0.00 49 982.7
20260831184616 92 253 2.0 3.0 0.00 0.00 0.00 54 983.1
20260831183116 92 174 1.0 2.0 0.00 0.00 0.00 53 983.1
20260831181616 91 262 2.0 5.0 0.00 0.00 0.00 54 983.1
20260831180116 91 229 2.0 2.0 0.00 0.00 0.00 55 983.4
20260831174616 89 193 0.0 3.0 0.00 0.00 0.00 56 983.7
20260831173115 90 287 2.0 3.0 0.00 0.00 0.00 57 984.1
20260831171615 89 227 3.0 6.0 0.00 0.00 0.00 59 984.1
20260831170115 88 305 3.0 3.0 0.00 0.00 0.00 61 984.1
20260831164615 87 117 2.0 2.0 0.00 0.00 0.00 62 984.1
20260831163115 87 276 1.0 2.0 0.00 0.00 0.00 63 984.1
20260831161615 87 237 5.0 6.0 0.00 0.00 0.00 62 984.1
20260831160115 87 266 2.0 3.0 0.00 0.00 0.00 65 984.1
20260831154615 86 245 0.0 2.0 0.00 0.00 0.00 66 984.4
20260831153146 85 102 2.0 2.0 0.00 0.00 0.00 69 984.4
20260831153115 85 102 2.0 2.0 0.00 0.00 0.00 69 984.4
20260831151615 84 261 2.0 2.0 0.00 0.00 0.00 69 984.1
20260831150115 83 260 1.0 3.0 0.00 0.00 0.00 71 984.4
20260831144615 82 211 1.0 2.0 0.00 0.00 0.00 73 984.1
20260831143115 81 185 0.0 2.0 0.00 0.00 0.00 75 984.1
20260831141615 80 243 0.0 2.0 0.00 0.00 0.00 77 983.7
20260831140115 78 247 2.0 2.0 0.00 0.00 0.00 79 983.7
20260831134545 77 261 1.0 2.0 0.00 0.00 0.00 81 983.9
20260831133015 76 223 0.0 1.0 0.00 0.00 0.00 83 984.0
20260831131445 75 258 1.0 3.0 0.00 0.00 0.00 84 983.5
20260831125945 75 219 2.0 3.0 0.00 0.00 0.00 84 983.4
20260831124519 75 231 2.0 2.0 0.00 0.00 0.00 84 983.4
20260831124445 75 231 2.0 2.0 0.00 0.00 0.00 84 983.4
20260831122914 75 227 2.0 2.0 0.00 0.00 0.00 84 983.1
20260831121415 74 224 0.0 0.0 0.00 0.00 0.00 86 983.1
20260831120011 74 223 1.0 3.0 0.00 0.00 0.00 86 983.1
20260831115914 74 223 1.0 3.0 0.00 0.00 0.00 86 983.1